Theta_e
311 312 312 313 316 316 316 318 322 321 323 324 323 322 321 319 320 322 323 322 322 324 326 327 325 325 325 325 326 326 325 325 323 322 323 324 323 321 321 321 321 321 321 322
310 311 314 315 315 314 315 317 317 319 322 320 322 321 319 318 320 321 321 318 318 319 321 323 324 326 327 327 326 325 326 325 325 324 325 325 325 324 323 321 320 322 322 322
308 312 311 315 315 315 315 318 319 321 320 320 322 319 317 317 320 320 317 314 315 317 318 319 321 322 322 322 324 327 325 325 324 324 325 325 325 325 325 325 324 323 322 321
308 310 315 316 313 317 320 318 320 321 321 318 316 314 312 317 318 315 311 311 312 314 316 317 318 320 321 321 320 323 325 325 325 325 324 324 324 325 325 325 325 325 325 324
306 310 309 314 315 318 313 315 318 319 319 317 315 312 309 309 311 310 308 308 310 312 313 315 316 317 318 319 319 319 319 321 323 324 324 325 325 324 325 325 325 325 325 325
308 311 310 314 314 314 316 317 314 317 317 315 314 313 308 304 307 307 307 308 307 309 311 312 311 314 315 315 315 316 316 315 318 319 319 320 323 325 325 324 325 325 325 325
308 310 311 312 315 315 318 317 312 311 311 312 312 308 304 302 302 304 305 304 306 308 309 308 309 310 311 311 310 309 309 311 313 315 317 318 317 318 321 323 324 324 324 325
308 311 311 314 314 316 313 311 310 310 309 308 305 303 302 302 301 301 303 305 304 305 305 305 306 307 305 306 304 307 308 309 310 310 311 313 315 316 316 318 320 319 319 320
308 309 312 311 312 310 309 307 306 307 306 305 302 300 299 298 299 300 300 300 300 301 302 303 304 305 304 303 302 303 305 307 307 307 308 308 310 312 314 314 314 314 313 310
310 308 308 306 307 306 307 303 302 302 302 302 298 297 295 295 294 295 296 297 298 299 299 300 301 302 302 303 303 302 302 303 303 304 303 303 304 303 303 303 302 301 301 301
306 303 303 301 301 302 301 301 301 300 299 297 297 294 294 292 292 292 293 295 296 296 296 295 296 299 300 301 301 302 302 302 301 300 299 298 298 297 296 294 295 295 294 295
306 300 301 299 299 299 299 295 296 296 296 293 293 292 292 291 290 290 289 290 291 291 292 292 293 293 294 295 296 297 297 297 297 297 296 294 291 290 289 289 290 290 289 290
298 298 297 297 297 298 297 294 293 293 291 291 290 290 290 288 287 287 288 288 288 288 288 289 289 289 289 291 292 293 293 292 292 292 291 291 290 288 287 286 287 286 286 286
297 299 295 295 294 294 293 292 292 290 289 288 287 287 286 285 285 286 286 285 286 286 286 287 287 287 287 287 289 289 289 289 289 289 289 288 288 287 286 286 286 285 285 285
294 294 293 293 294 292 291 291 290 287 286 285 285 285 284 284 284 284 284 284 285 285 285 285 285 285 286 286 287 288 288 287 287 287 286 286 286 286 285 285 284 283 283 284
291 292 291 290 290 289 289 287 286 284 283 283 282 282 282 283 283 283 283 283 285 284 283 284 285 284 284 285 285 286 286 285 285 285 284 284 284 284 284 284 283 283 283 282
289 288 289 287 287 286 285 285 284 283 283 282 281 281 281 281 281 282 282 282 283 283 283 283 282 283 284 284 284 284 284 284 284 284 283 283 282 282 281 281 281 280 280 279
285 285 286 285 283 282 281 281 281 281 282 281 281 281 281 282 281 281 281 281 281 282 282 282 281 282 282 282 282 282 282 282 282 281 281 280 280 279 279 278 277 277 276 275
283 282 282 282 281 280 279 280 281 280 280 281 281 281 281 281 280 281 280 281 281 281 279 277 277 277 277 278 278 279 280 279 279 278 278 277 277 276 276 275 274 273 273 272
281 281 281 281 280 280 280 280 280 280 280 280 281 280 280 280 279 279 277 277 276 275 274 275 275 275 275 275 276 276 276 276 276 275 275 275 274 274 273 273 272 272 272 271
280 280 280 280 280 280 280 279 280 280 279 278 279 278 277 276 275 274 274 274 273 273 273 273 274 274 274 274 274 274 274 274 274 273 273 273 272 272 272 271 271 270 270 270
280 280 280 280 280 279 279 279 279 279 279 278 277 275 275 275 275 274 273 273 272 272 272 272 272 272 272 272 272 273 273 272 272 272 271 271 271 271 270 270 270 269 269 269
280 280 280 280 280 280 279 278 278 277 276 276 276 275 275 274 273 272 272 271 271 271 271 271 271 272 271 272 272 271 271 271 271 271 270 270 270 269 269 268 268 268 268 268
280 279 279 279 278 278 278 277 277 276 276 275 274 274 273 273 273 271 271 270 270 270 270 270 270 270 270 270 270 270 270 269 269 269 269 269 269 268 268 268 268 268 268 267
280 279 279 278 278 278 277 277 276 276 275 275 274 273 272 271 271 271 270 270 269 269 269 269 269 269 269 268 269 269 269 268 268 268 267 267 268 267 267 267 267 267 267 267
279 279 279 278 278 277 277 277 276 275 275 274 274 273 272 271 270 270 269 269 269 268 268 268 268 268 268 268 268 268 267 267 267 267 267 266 266 266 266 266 266 266 266 266
279 278 278 277 277 276 276 276 276 275 274 273 273 272 271 271 270 269 269 268 268 268 268 268 267 267 267 267 267 266 266 266 266 266 266 266 266 266 266 266 266 266 266 266
Wind_Speed
7 12 14 15 16 14 10 12 7 7 5 4 4 10 11 14 24 33 33 36 33 25 19 14 9 7 13 18 22 24 24 24 25 24 25 26 28 31 36 41 42 43 44 45
5 7 7 14 16 17 17 19 14 20 7 3 7 3 13 8 22 30 28 31 29 28 28 25 17 10 5 6 15 23 28 28 27 27 28 29 30 30 31 33 36 42 44 45
4 7 12 11 10 14 13 15 18 17 13 2 9 8 11 13 22 28 27 29 31 29 25 20 19 15 13 8 2 11 21 26 23 23 27 31 30 31 34 35 35 36 39 41
4 6 4 2 11 4 6 9 13 5 10 15 15 20 24 22 25 26 25 28 29 26 23 21 18 16 12 9 11 10 6 15 20 23 22 25 30 34 36 36 37 36 37 37
2 2 10 4 5 4 3 6 6 14 19 18 13 29 24 28 27 26 26 27 26 23 20 18 19 18 15 12 10 9 11 6 2 8 15 23 27 29 31 35 40 42 41 40
2 3 4 1 10 7 2 3 9 12 11 1 10 9 8 19 23 23 22 21 21 19 17 17 20 18 16 16 13 13 13 12 7 3 3 6 10 20 29 33 34 34 35 39
6 4 7 8 3 7 0 5 15 19 20 20 11 9 13 15 21 19 17 17 17 16 17 19 17 16 16 16 20 19 16 15 12 10 9 8 8 10 13 19 26 30 35 37
3 5 8 5 6 1 8 17 20 18 17 23 22 18 16 16 17 19 19 16 16 14 15 15 14 14 16 18 17 15 15 15 17 17 16 11 9 7 8 12 12 14 19 24
6 3 11 20 20 22 21 19 18 18 15 20 17 17 15 16 16 17 17 16 15 15 14 14 13 13 13 15 15 16 14 14 14 14 14 14 11 8 4 2 4 7 9 11
5 7 14 21 21 25 24 24 21 20 18 16 17 14 15 13 14 14 14 16 15 15 16 15 14 13 12 11 12 13 15 15 15 15 15 14 13 13 12 11 9 7 6 5
5 4 6 21 21 19 25 18 18 16 15 14 11 14 13 13 13 14 15 15 15 15 16 17 15 12 10 9 8 9 10 10 11 13 16 18 18 19 18 16 13 13 13 13
3 8 11 11 17 14 21 15 16 13 14 13 11 12 11 14 13 14 14 14 15 15 14 14 13 13 12 10 9 7 6 7 8 9 11 15 18 20 19 20 19 19 21 20
6 20 18 17 20 13 11 12 12 13 12 11 11 10 11 13 13 14 14 15 15 15 13 14 15 15 16 14 12 10 9 9 10 10 12 14 16 19 22 22 23 24 22 21
14 6 15 14 11 12 12 11 11 13 12 12 11 11 11 12 12 15 17 16 15 14 15 15 16 17 16 15 13 15 14 12 12 12 13 14 15 17 17 18 19 19 17 16
18 19 15 12 11 12 10 8 10 14 14 13 11 11 12 14 16 16 15 14 14 14 16 15 16 18 15 13 13 14 14 14 13 13 13 13 13 13 14 14 14 14 12 11
8 10 10 11 10 9 8 9 10 11 11 11 11 12 14 15 15 14 12 11 9 16 16 15 15 14 12 11 12 12 12 12 11 11 11 10 10 10 10 9 9 8 8 9
8 9 7 7 7 7 8 6 5 8 9 8 9 11 11 13 14 14 14 13 12 13 13 13 13 10 9 8 8 8 8 7 7 7 7 7 7 7 7 6 7 7 7 6
9 9 9 8 8 8 7 6 7 9 10 9 7 7 9 9 11 11 11 10 9 8 8 9 8 7 7 7 6 5 4 5 5 5 6 5 6 5 6 5 5 5 5 5
7 9 8 8 8 10 11 12 12 12 11 9 9 11 10 9 8 7 7 5 5 5 7 7 6 5 5 4 4 3 3 3 3 4 4 4 4 4 4 4 5 5 5 6
9 10 11 12 12 12 14 13 13 13 12 9 9 9 9 9 7 5 4 4 5 6 4 4 4 4 4 3 2 2 2 2 2 3 2 2 3 4 4 4 4 4 4 5
13 13 14 14 14 13 12 11 10 12 12 9 6 7 7 7 6 7 5 5 6 5 4 3 4 5 5 4 3 3 3 3 3 4 3 3 3 3 2 2 3 3 5 6
11 12 13 12 13 14 11 9 8 7 5 4 4 6 6 5 6 6 4 4 5 3 2 3 4 4 4 4 4 4 3 2 2 2 1 1 1 1 2 3 4 5 6 8
13 13 12 11 9 9 7 6 5 5 4 4 4 4 6 7 7 5 3 4 4 3 2 3 4 3 4 4 3 3 3 4 3 3 3 3 4 4 4 6 7 8 9 9
12 11 11 11 11 9 7 7 6 6 8 8 7 8 8 8 8 5 3 3 3 4 2 3 5 5 4 3 2 3 3 3 4 5 6 6 6 7 7 7 8 9 9 9
7 4 3 2 3 3 3 3 2 3 5 7 7 9 9 7 3 3 4 4 4 5 5 6 6 5 5 5 6 6 5 5 5 6 6 7 8 9 9 9 9 8 8 9
2 1 3 3 2 2 2 5 7 8 7 6 6 9 9 8 5 4 4 5 7 8 7 5 6 7 7 6 7 9 9 9 8 8 8 9 11 11 11 11 11 11 12 13
3 4 6 5 4 6 6 5 6 6 6 9 10 7 8 9 8 7 7 6 5 7 9 9 8 8 10 10 12 13 13 12 11 10 10 10 11 12 12 11 11 12 13 13
Wind_Direction
260 264 270 266 258 259 259 252 233 232 226 112 124 313 331 347 67 67 70 73 78 88 98 124 147 191 235 243 244 240 239 237 238 238 236 236 237 238 237 237 239 241 242 244
282 279 288 265 271 255 244 252 246 243 235 311 196 172 318 6 74 73 67 68 75 81 87 92 98 109 148 228 250 252 250 254 256 254 250 247 246 245 245 243 243 241 242 244
265 295 300 274 276 260 237 243 227 218 227 111 170 91 335 346 70 86 81 72 69 67 72 80 85 91 94 94 25 235 233 240 250 263 263 261 258 256 253 253 252 251 251 250
269 311 261 218 324 244 334 8 202 170 130 103 95 85 65 61 80 73 76 72 68 67 66 69 76 81 80 77 80 85 191 221 234 242 248 254 260 260 259 258 258 260 260 260
231 226 275 303 338 295 123 349 0 109 125 145 113 78 53 67 76 77 71 64 60 56 57 62 63 62 62 59 47 71 83 99 203 256 256 257 260 257 256 260 263 262 262 262
171 269 257 230 308 317 264 81 45 121 114 20 70 81 73 65 79 74 62 59 52 53 58 59 54 51 51 53 50 44 36 38 46 15 302 300 292 262 253 250 251 257 250 248
218 262 280 265 119 287 261 97 86 81 83 87 80 82 96 73 67 66 60 45 38 34 38 47 47 46 52 54 55 49 44 41 35 24 9 354 334 319 301 278 265 254 245 244
202 234 255 144 88 15 101 86 96 89 101 104 105 94 76 57 51 52 51 43 39 41 45 45 45 42 43 46 43 42 38 34 29 25 22 12 357 351 347 333 310 267 243 237
178 212 50 57 96 104 112 98 79 97 90 113 98 86 86 75 61 53 53 49 42 45 47 47 39 31 25 28 23 17 17 21 23 24 23 20 11 6 8 42 352 318 293 271
112 22 71 67 77 94 101 87 88 95 88 101 94 94 88 81 71 63 59 55 46 42 44 43 40 30 19 12 3 -0 1 6 15 18 27 32 32 34 33 35 46 62 63 46
103 196 27 56 63 75 81 89 90 85 84 79 90 82 80 71 61 59 57 55 50 46 46 45 40 34 20 13 5 355 356 6 15 27 32 36 38 45 47 53 55 66 72 74
78 78 79 50 72 77 77 69 80 83 78 74 75 76 70 67 62 65 64 66 64 60 53 50 43 41 34 31 32 32 36 44 49 50 57 67 72 77 80 87 85 86 92 93
84 84 87 71 63 63 78 71 76 82 79 76 71 73 72 77 71 74 75 74 73 69 65 65 60 56 49 46 49 53 62 72 79 84 89 90 94 95 95 94 102 99 96 98
46 121 62 67 67 93 86 73 57 64 67 71 76 88 92 92 89 85 83 82 82 81 78 71 70 66 58 52 57 66 69 74 80 88 94 101 103 105 106 104 97 92 93 95
51 78 95 104 94 87 79 68 57 61 65 75 79 88 97 97 93 90 91 91 90 89 82 76 72 68 58 54 56 66 73 76 80 88 95 99 100 99 96 95 92 91 89 83
52 67 83 86 80 70 66 64 73 77 73 81 93 92 92 96 99 101 101 102 97 76 71 66 63 63 59 52 56 63 71 81 85 89 93 91 91 90 89 88 90 85 80 73
103 77 96 83 68 64 75 89 89 103 115 117 92 90 100 102 103 97 87 78 75 73 69 68 62 57 55 55 49 58 67 76 81 96 102 101 98 92 88 84 76 73 71 62
75 84 97 103 97 94 101 102 109 125 125 117 105 102 104 103 90 84 76 70 69 70 66 60 59 46 46 49 48 61 65 78 89 88 86 92 90 82 77 63 57 45 41 33
53 70 80 91 95 102 103 105 106 108 111 113 115 107 99 87 75 63 50 39 47 46 48 33 20 20 16 27 29 35 70 93 97 99 99 101 96 82 65 55 44 44 43 42
90 89 91 99 101 100 104 105 109 107 101 100 97 96 94 85 68 55 50 47 60 58 43 24 17 22 40 47 41 33 42 72 93 102 102 89 78 73 64 53 42 33 34 33
96 99 101 103 103 102 101 105 111 110 107 102 94 84 70 57 37 24 16 30 51 57 48 33 30 42 47 49 50 63 69 75 85 86 86 79 71 69 55 34 8 353 345 340
104 103 100 102 104 103 100 98 92 93 98 87 63 48 35 27 12 6 20 44 53 71 47 23 29 33 40 53 53 47 58 72 69 59 45 14 334 310 299 308 311 309 307 305
99 97 94 90 84 84 87 74 58 48 42 29 16 17 14 16 14 6 355 51 60 74 35 13 10 18 30 21 17 30 40 35 31 20 7 357 348 335 325 319 311 312 313 315
100 93 84 75 65 60 54 63 64 59 42 33 14 349 337 328 332 354 35 57 47 46 17 15 21 17 5 360 355 348 342 328 331 331 330 334 330 330 328 323 318 316 318 317
107 96 110 78 68 57 27 3 344 343 358 358 2 3 358 353 350 21 27 29 32 28 21 21 21 5 11 353 343 343 346 345 338 323 311 312 318 323 325 326 322 315 309 308
156 324 162 177 213 266 302 243 245 232 255 293 322 336 348 356 359 8 13 5 1 1 358 11 11 7 11 4 1 1 352 349 347 342 337 328 323 324 325 326 324 320 319 317
204 229 253 255 281 307 316 270 258 260 277 297 303 317 334 340 339 340 340 331 342 357 348 335 338 343 343 345 343 343 334 334 333 335 339 332 326 322 322 317 310 305 302 302